Погода в Лонсестоне

Австралия     41°26′48″S   147°08′21″E
темп.,
°C
ветер,
м/с
пор.,
м/с
влажн.,
%
обл.,
%
осадки,
мм/ч
давл.,
гПа
погр.,
м
23 апреля, пт
пт2301:00+9сз496765 0.0 1007825
04:00+8сз4106756 0.0 1007527
07:00+9сз3866100 0.0 1009539
10:00+12з484668 0.0 10111836
13:00+14з584599 0.0 10101999
16:00+12з5857100 0.0 10121234
19:00+10зсз27688 0.0 1014463
22:00+8с3876100 0.0 1016308
24 апреля, сб
сб2401:00+10ссз3970100 0.0 1016506
04:00+7ссз378899 0.0 1016215
07:00+8ссз3984100 0.0 1016352
10:00+12сз4768100 0.0 1017800
13:00+14з3751100 0.1 10161754
16:00+14юз345227 0.1 1016929
19:00+8вюв1185100 0.0 102012
22:00+7в1180100 0.0 102121
25 апреля, вс
вс2501:00+6в1182100 0.0 102214
04:00+4св11895 0.0 102210
07:00+4ссв11895 0.0 102311
10:00+11сз24565 0.0 1022576
13:00+14з484964 0.0 10201626
16:00+14з4754100 0.0 10201277
19:00+8ссз2479100 0.0 102275
22:00+8с2487100 0.0 102392
26 апреля, пн
пн2601:00+8ссв23895 0.0 102265
04:00+7ссв21945 0.0 102224
07:00+7ссв119489 0.0 102318
10:00+14зсз12645 0.0 1024510
13:00+18зсз135045 0.0 10221407
16:00+18ююз114862 0.0 10211353
19:00+13юв126625 0.0 102488
22:00+9юв22815 0.0 102521
27 апреля, вт
вт2701:00+8юв22845 0.0 102542
04:00+6юв22875 0.0 102628
07:00+6юв118615 0.0 102815
10:00+13ю235541 0.0 1028515
13:00+17ююз12406 0.0 1027964
16:00+16зюз01445 0.0 1026627
19:00+9с24894 0.0 102877
22:00+8ссв119599 0.0 102916